Погода в Знаменке

Россия / Красноярский край     53°32′04″N   91°54′44″E
темп.,
°C
ветер,
м/с
пор.,
м/с
влажн.,
%
обл.,
%
осадки,
мм/ч
давл.,
гПа
погр.,
м
18 апреля, вс
вс1801:00−2вюв0075100 0.0 102412
04:00−3вюв227696 0.0 102345
07:00−2вюв247799 0.0 1021282
10:00+2ююз236399 0.0 1019689
13:00+5з5948100 0.0 10181681
16:00+7з61038100 0.0 10162241
19:00+5з2252100 0.0 101628
22:00+3ююв2261100 0.0 101522
19 апреля, пн
пн1901:00+2юв3876100 0.0 1012182
04:00+2юв41173100 0.0 1006195
07:00+5ю245767 0.0 100288
10:00+8зюз122176100 0.4 10031717
13:00+6зюз121841100 0.8 10101774
16:00+4з8934100 0.0 10142172
19:00+2з5640100 0.0 10171701
22:00−1с5655100 0.1 1019761
20 апреля, вт
вт2001:00−4с4648100 0.1 1020821
04:00−5с3452100 0.0 1021895
07:00−5с2151100 0.0 1023878
10:00−2зсз2343100 0.0 10231488
13:00+1сз343299 0.0 10212159
16:00+2ссз4328100 0.0 10202276
19:000ссв353369 0.0 1021509
22:00−3св2244100 0.0 102331
21 апреля, ср
ср2101:00−3с114587 0.0 102328
04:00−5ссв255475 0.0 1025150
07:00−3всв25505 0.0 1025299
10:00+1вюв333122 0.0 10241648
13:00+3в442660 0.0 10222222
16:00+4в4428100 0.0 10212084
19:00+2св5839100 0.0 1021725
22:00−1ссв3851100 0.0 1022251
22 апреля, чт
чт2201:00−2ссз2459100 0.0 102383
04:00−2сз1264100 0.0 102441
07:00−1сз3454100 0.0 1026397
10:00+1сз3446100 0.0 1028968
13:00+4зсз3340100 0.0 10281632
16:00+5сз2238100 0.0 10281732
19:00+3сз4559100 0.1 1031311
22:000с597687 0.1 1034384